Regional Weather Roundup
Issued by NWS

Home | Current Version | Previous Version | Graphics & Text | Print | Product List | Glossary On
Versions: 1 2 3 4 5 6 7 8 9 10 11 12 13 14 15 16 17 18 19 20 21 22 23 24 25 26 27 28 29 30 31 32 33 34 35 36 37 38 39 40 41 42 43 44 45 46 47 48 49 50
000
ASUS43 KIND 281309
RWRIN

WEATHER ROUNDUP FOR INDIANA
NATIONAL WEATHER SERVICE INDIANAPOLIS IN
900 AM EDT TUE JUL 28 2015

NOTE: "FAIR" INDICATES FEW OR NO CLOUDS BELOW 12,000 FEET WITH NO
SIGNIFICANT WEATHER AND/OR OBSTRUCTIONS TO VISIBILITY.

* - STATION DOES NOT REPORT WEATHER SUCH AS PRECIPITATION OR FOG.

+ - STATION NOT QUALITY CONTROLLED BY THE NATIONAL WEATHER SERVICE.
    USE DATA WITH CAUTION...ESPECIALLY DEWPOINT AND RELATIVE
    HUMIDITY OBSERVATIONS.

INZ001>003-010>013-019-020-281400-
NORTHWEST INDIANA

CITY           SKY/WX    TMP DP  RH WIND       PRES   REMARKS
GARY /AIRPORT/ MOSUNNY   77  66  69 SE7       30.01S
KNOX *+        PTSUNNY   72  63  73 E3        30.01S
LA PORTE +     SUNNY     74  66  74 E3        30.04R
MICHIGAN CITY+ SUNNY     73  63  68 SE3       30.03R
MONTICELLO +   SUNNY     75  69  80 E3        30.00S
RENSSELAER +   SUNNY     73  70  88 E6        30.01S
VALPARAISO     PTSUNNY   73  66  78 E6        30.03R

$$

LMZ046-743>745-281400-
SOUTHERN LAKE MICHIGAN

STATION/POSITION TIME  TEMP    WIND        PRES    WAVE
                       AIR SEA DIR/SP/G            HT
                 (UTC) (F)     (DEG/KT/KT) (MB)    (FT)
BURNS HARBOR     1200   77     140/  6/ 12 1016.6R
MICHIGAN CITY    1200   73     110/  7/  8   N/A
5NW MICH CITY    1300   75 74  160/  6/  8   N/A     1

$$

INZ004-005-014>016-021>024-281400-
NORTH CENTRAL INDIANA

CITY           SKY/WX    TMP DP  RH WIND       PRES   REMARKS
ELKHART        SUNNY     72  63  73 E5        30.05R
GOSHEN         SUNNY     74  64  71 SE5       30.04R
LOGANSPORT +   SUNNY     73  63  68 E6        30.03R
PERU/GRISSOM   SUNNY     76  67  75 SE5       30.02R
ROCHESTER +    MOSUNNY   77  66  69 E6        30.03R
SOUTH BEND     SUNNY     74  63  68 E6        30.04R
WARSAW +       SUNNY     72  63  73 E6        30.03S

$$

INZ006>009-017-018-025>027-281400-
NORTHEAST INDIANA

CITY           SKY/WX    TMP DP  RH WIND       PRES   REMARKS
ANGOLA *+      SUNNY     75  66  73 E3        30.05R
AUBURN +       SUNNY     72  63  73 E7        30.05S
FORT WAYNE     SUNNY     73  65  75 E5        30.04S
HUNTINGTON +   SUNNY     73  65  77 E5        30.03R

$$

INZ028-029-035-036-043>045-051>053-281400-
WEST CENTRAL INDIANA

CITY           SKY/WX    TMP DP  RH WIND       PRES   REMARKS
CRAWFORDSVL +  MOSUNNY   75  71  88 CALM        N/A
GREENCASTLE +  PTSUNNY   77  70  78 E3        30.01R HAZE
LAFAYETTE      SUNNY     75  69  81 E6        29.99S
TERRE HAUTE    MOSUNNY   77  73  87 SE3       29.98S

$$

INZ030>032-037>040-046>048-054>057-064-065-281400-
CENTRAL INDIANA

CITY           SKY/WX    TMP DP  RH WIND       PRES   REMARKS
ANDERSON       SUNNY     75  64  69 E6        30.03
COLUMBUS       SUNNY     73  72  94 CALM      30.00R FOG
FRANKFORT +    SUNNY     75  75 100 CALM      30.03R
GREENWOOD *+   SUNNY     77  72  83 E5        30.02R
INDIANAPOLIS   MOSUNNY   78  71  79 E7        30.01R FOG
-EAGLE CREEK   MOSUNNY   77  72  84 E6        30.00R
KOKOMO *+      SUNNY     73  66  78 SE6       30.02R
MARION +       SUNNY     75  65  71 SE3       30.03R
MT COMFORT *+  SUNNY     77 N/A N/A E3        30.02R
SHELBYVILLE    SUNNY     78  73  84 CALM      30.00S HAZE
ZIONSVILLE +   SUNNY     76  70  80 E5        30.02S

$$

INZ033-034-041-042-049-050-058-059-281400-
EAST CENTRAL INDIANA

CITY           SKY/WX    TMP DP  RH WIND       PRES   REMARKS
MUNCIE         SUNNY     75  68  78 SE3       30.03R

$$

INZ060-061-067>069-081>083-085>088-281400-
SOUTHWEST INDIANA

CITY           SKY/WX    TMP DP  RH WIND       PRES   REMARKS
EVANSVILLE     MOSUNNY   78  74  87 SW5       29.98R
HUNTINGBURG *+ MOSUNNY   77  73  88 S6        29.98S
WASHINGTON +   CLOUDY    76  72  87 S3        29.97R FOG

$$

INZ062-063-066-070>080-084-089>092-281400-
SOUTH CENTRAL AND SOUTHEAST INDIANA

CITY           SKY/WX    TMP DP  RH WIND       PRES   REMARKS
BLOOMINGTON    PTSUNNY   78  73  84 SE6       29.99S
MADISON *+     SUNNY     79  72  78 S3        30.02R
NORTH VERNON + SUNNY     77  77 100 NE5       30.00S FOG
SEYMOUR +      SUNNY     82  73  74 CALM      29.99  HAZE

$$



USA.gov is the U.S. government's official web portal to all federal, state and local government web resources and services.